Regional Weather Roundup
Issued by NWS Memphis, TN

Home | Current Version | Previous Version | Text Only | Print | Product List | Glossary On
Versions: 1 2 3 4 5 6 7 8 9 10 11 12 13 14 15 16 17 18 19 20 21 22 23 24 25 26 27 28 29 30 31 32 33 34 35 36 37 38 39 40 41 42 43 44 45 46 47 48 49 50
000
ASUS44 KMEG 301010
RWRMEG
MEMPHIS CWA HOURLY WEATHER ROUNDUP
NATIONAL WEATHER SERVICE MEMPHIS TN
500 AM CDT THU JUL 30 2015

...WEST TENNESSEE...

CITY           SKY/WX    TMP DP  RH WIND       PRES   REMARKS
MEMPHIS INTL   PTCLDY    82  75  79 NE8       30.04R
NWS MEMPHIS      N/A     80 N/A N/A MISG        N/A
JACKSON        MOCLDY    79  75  87 N9        30.04R
DYERSBURG        N/A    N/A N/A N/A MISG        N/A


...EASTERN ARKANSAS...

CITY           SKY/WX    TMP DP  RH WIND       PRES   REMARKS
JONESBORO      CLEAR     76  66  71 NE10      30.07R
WEST MEMPHIS   CLEAR     79  77  94 N7        30.04R
BATESVILLE     CLEAR     75  70  83 CALM      30.10R
NEWPORT        CLOUDY    77  73  87 NE8       30.09R
WALNUT RIDGE   CLEAR     75  66  73 N7        30.09R
BLYTHEVILLE    PTCLDY    75  73  93 N10       30.06R
SEARCY         CLEAR     78  73  84 N6        30.08R
STUTTGART      CLEAR     79  73  83 N5        30.04S
PINE BLUFF     CLEAR     81  75  82 N7        30.04R
MONTICELLO     CLEAR     80  78  94 NW3       30.02R


...NORTH MISSISSIPPI...

CITY           SKY/WX    TMP DP  RH WIND       PRES   REMARKS
TUPELO         CLEAR     76  73  91 N5        29.99S
OLIVE BRANCH     N/A     79  79 100 N8        30.04S
TUNICA         CLEAR     77  73  88 N6        30.03S
CLARKSDALE     CLEAR     77  77 100 N6        30.02S
CORINTH        CLEAR     77  75  94 CALM      30.01S FOG
GREENWOOD      CLEAR     75  72  90 CALM      30.00S
COLUMBUS       CLEAR     74  73  97 NE1       29.98S
STARKVILLE     FAIR      72  72 100 CALM      29.99S FOG
GOLDEN TRIANGL CLEAR     75  72  88 NW5       29.98S


...SOUTHEAST MISSOURI...

CITY           SKY/WX    TMP DP  RH WIND       PRES   REMARKS
WEST PLAINS    CLEAR     68  62  81 NE5       30.17R
POPLAR BLUFF   CLEAR     70  63  78 N7        30.09R


...NORTHWEST ALABAMA...

CITY           SKY/WX    TMP DP  RH WIND       PRES   REMARKS
MUSCLE SHOALS  CLEAR     76  73  91 NW6       30.01S


...MIDDLE TENNESSEE...

CITY           SKY/WX    TMP DP  RH WIND       PRES   REMARKS
NASHVILLE      MOCLDY    78  74  87 N8        30.03S
CLARKSVILLE    MOCLDY    74  68  81 N8        30.06R


...WESTERN KENTUCKY...

CITY           SKY/WX    TMP DP  RH WIND       PRES   REMARKS
PADUCAH        CLEAR     71  63  75 N6        30.08R
FORT CAMPBELL  PTCLDY    72  66  82 N7        30.06R


...CENTRAL ARKANSAS...

CITY           SKY/WX    TMP DP  RH WIND       PRES   REMARKS
LITTLE ROCK    CLEAR     81  75  82 N6        30.06R


SKY/WX REPORTED AS FAIR MEANS FEW OR NO CLOUDS BELOW
12 THOUSAND FEET.



USA.gov is the U.S. government's official web portal to all federal, state and local government web resources and services.